Location: G�kdere
(37.0328°N, 30.9000°E)
Time: 01:56:05
(UTC+00:00)

SeaSat 1 - Pass Details

Date: 03 March 2021
Orbit: 744 x 747 km, 108.0° (Epoch: 22 April)

Event Time Altitude Azimuth Distance (km) Brightness Sun altitude
Rises 16:18:39 0° 32° (NNE) 3,195 5.4 -6.0°
Reaches altitude 10° 16:21:01 10° 39° (NE) 2,268 4.6 -6.5°
Maximum altitude 16:25:44 44° 111° (ESE) 1,021 2.8 -7.4°
Drops below altitude 10° 16:30:25 10° 183° (S) 2,255 5.0 -8.4°
Sets 16:32:45 0° 190° (S) 3,175 5.9 -8.8°
